TimeCDT,TemperatureF,Dew PointF,Humidity,Sea Level PressureIn,VisibilityMPH,Wind Direction,Wind SpeedMPH,Gust SpeedMPH,PrecipitationIn,Events,Conditions,WindDirDegrees,DateUTC
12:52 AM,30.0,27.0,88,29.99,0.8,North,18.4,28.8,0.00,Rain,Freezing Rain,360,2013-03-24 05:52:00
1:05 AM,30.2,26.6,86,29.98,1.0,North,18.4,28.8,0.00,Rain,Freezing Rain,10,2013-03-24 06:05:00
1:25 AM,30.2,26.6,86,29.98,1.2,North,16.1,25.3,0.00,Rain,Freezing Rain,360,2013-03-24 06:25:00
1:52 AM,30.0,26.1,85,29.99,1.5,North,21.9,38.0,0.00,Rain,Freezing Rain,350,2013-03-24 06:52:00
2:05 AM,28.4,24.8,86,29.98,1.5,North,21.9,34.5,0.00,Rain,Freezing Rain,360,2013-03-24 07:05:00
2:12 AM,28.4,24.8,86,29.98,1.2,North,21.9,33.4,0.00,Rain,Freezing Rain,360,2013-03-24 07:12:00
2:31 AM,28.4,24.8,86,29.98,2.0,North,23.0,36.8,0.00,Rain,Freezing Rain,360,2013-03-24 07:31:00
2:52 AM,28.9,25.0,85,30.00,3.0,North,23.0,32.2,0.00,Rain,Freezing Rain,360,2013-03-24 07:52:00
3:02 AM,28.4,24.8,86,29.98,2.0,North,23.0,31.1,0.00,Rain,Freezing Rain,360,2013-03-24 08:02:00
3:09 AM,28.4,24.8,86,29.98,1.2,North,21.9,31.1,0.00,Rain,Freezing Rain,360,2013-03-24 08:09:00
3:36 AM,28.4,24.8,86,29.98,1.2,NNW,20.7,32.2,0.00,Rain,Freezing Rain,340,2013-03-24 08:36:00
3:52 AM,28.0,24.1,85,30.00,1.8,NNW,21.9,31.1,0.00,Rain,Freezing Rain,340,2013-03-24 08:52:00
4:52 AM,27.0,23.0,85,30.01,2.0,North,25.3,38.0,0.00,Rain,Freezing Rain,350,2013-03-24 09:52:00
5:16 AM,26.6,21.2,80,30.00,3.0,NNW,29.9,38.0,0.00,Rain,Freezing Rain,340,2013-03-24 10:16:00
5:52 AM,26.1,21.0,81,30.03,3.0,NNW,24.2,34.5,0.00,Rain,Freezing Rain,340,2013-03-24 10:52:00
6:52 AM,25.0,19.9,81,30.06,4.0,North,20.7,31.1,0.00,,Haze,350,2013-03-24 11:52:00
7:23 AM,24.8,19.4,80,30.04,4.0,North,19.6,28.8,N/A,,Haze,350,2013-03-24 12:23:00
7:52 AM,24.1,19.0,81,30.08,2.0,NNW,24.2,29.9,N/A,,Haze,340,2013-03-24 12:52:00
8:01 AM,23.0,17.6,80,30.06,2.5,North,21.9,33.4,N/A,,Haze,350,2013-03-24 13:01:00
8:10 AM,24.8,17.6,74,30.06,5.0,NNW,20.7,28.8,N/A,,Haze,340,2013-03-24 13:10:00
8:29 AM,24.8,15.8,69,30.07,10.0,NNW,25.3,31.1,N/A,,Scattered Clouds,340,2013-03-24 13:29:00
8:52 AM,24.1,15.1,69,30.11,10.0,North,24.2,32.2,N/A,,Clear,350,2013-03-24 13:52:00
9:52 AM,25.0,16.0,69,30.12,7.0,NNW,27.6,33.4,N/A,,Clear,340,2013-03-24 14:52:00
10:52 AM,26.1,16.0,66,30.14,6.0,NNW,23.0,33.4,N/A,,Haze,340,2013-03-24 15:52:00
11:52 AM,27.0,14.0,58,30.15,5.0,NNW,27.6,39.1,N/A,,Haze,340,2013-03-24 16:52:00
12:52 PM,28.9,15.1,56,30.16,10.0,NNW,26.5,32.2,N/A,,Clear,340,2013-03-24 17:52:00
1:52 PM,30.0,17.1,59,30.17,10.0,NNW,26.5,34.5,N/A,,Clear,330,2013-03-24 18:52:00
2:52 PM,30.9,17.1,57,30.14,10.0,NNW,24.2,32.2,N/A,,Clear,340,2013-03-24 19:52:00
3:52 PM,33.1,19.0,56,30.14,10.0,NNW,25.3,33.4,N/A,,Clear,330,2013-03-24 20:52:00
4:52 PM,34.0,19.0,54,30.14,10.0,NNW,23.0,32.2,N/A,,Clear,330,2013-03-24 21:52:00
5:52 PM,34.0,19.0,54,30.15,10.0,NW,19.6,28.8,N/A,,Clear,320,2013-03-24 22:52:00
6:52 PM,33.1,18.0,54,30.16,10.0,NW,17.3,28.8,N/A,,Clear,320,2013-03-24 23:52:00
7:52 PM,30.9,19.0,61,30.17,10.0,NW,11.5,-,N/A,,Clear,320,2013-03-25 00:52:00
8:52 PM,28.9,19.9,69,30.17,10.0,WNW,6.9,-,N/A,,Clear,300,2013-03-25 01:52:00
9:52 PM,28.9,21.0,72,30.18,10.0,NW,9.2,-,N/A,,Clear,320,2013-03-25 02:52:00
10:52 PM,28.0,19.9,72,30.19,10.0,NW,9.2,-,N/A,,Clear,310,2013-03-25 03:52:00
11:52 PM,28.0,19.9,72,30.20,10.0,NW,12.7,-,N/A,,Clear,310,2013-03-25 04:52:00